Time,TemperatureF,DewpointF,PressureIn,WindDirection,WindDirectionDegrees,WindSpeedMPH,WindSpeedGustMPH,Humidity,HourlyPrecipIn,Conditions,Clouds,dailyrainin,SoftwareType,DateUTC
2013-02-15 00:00:00,28.0,22.3,29.88,West,264,0.0,0.0,79,0.00,,,0.00,Wunderground v.1.15,2013-02-15 05:00:00,
2013-02-15 00:05:00,28.0,22.3,29.88,West,264,0.0,0.0,79,0.00,,,0.00,Wunderground v.1.15,2013-02-15 05:05:00,
2013-02-15 00:10:00,28.1,22.4,29.87,West,264,0.0,0.0,79,0.00,,,0.00,Wunderground v.1.15,2013-02-15 05:10:00,
2013-02-15 00:15:00,28.2,22.5,29.87,West,264,0.0,0.0,79,0.00,,,0.00,Wunderground v.1.15,2013-02-15 05:15:00,
2013-02-15 00:25:00,28.3,23.2,29.87,West,264,0.0,0.0,81,0.00,,,0.00,Wunderground v.1.15,2013-02-15 05:25:00,
2013-02-15 00:35:00,28.1,23.0,29.87,West,264,0.0,0.0,81,0.00,,,0.00,Wunderground v.1.15,2013-02-15 05:35:00,
2013-02-15 00:40:00,28.1,23.0,29.86,West,264,0.0,0.0,81,0.00,,,0.00,Wunderground v.1.15,2013-02-15 05:40:00,
2013-02-15 00:50:00,28.3,23.2,29.86,West,264,0.0,0.0,81,0.00,,,0.00,Wunderground v.1.15,2013-02-15 05:50:00,
2013-02-15 01:00:00,28.4,23.0,29.86,West,264,0.0,0.0,80,0.00,,,0.00,Wunderground v.1.15,2013-02-15 06:00:00,
2013-02-15 01:05:00,28.5,23.1,29.86,West,264,0.0,0.0,80,0.00,,,0.00,Wunderground v.1.15,2013-02-15 06:05:00,
2013-02-15 01:15:00,28.7,23.3,29.85,West,264,0.0,0.0,80,0.00,,,0.00,Wunderground v.1.15,2013-02-15 06:15:00,
2013-02-15 01:25:00,28.9,23.2,29.85,West,264,0.0,0.0,79,0.00,,,0.00,Wunderground v.1.15,2013-02-15 06:25:00,
2013-02-15 01:35:00,29.0,23.6,29.85,West,264,0.0,0.0,80,0.00,,,0.00,Wunderground v.1.15,2013-02-15 06:35:00,
2013-02-15 01:45:00,28.9,23.8,29.85,West,264,0.0,0.0,81,0.00,,,0.00,Wunderground v.1.15,2013-02-15 06:45:00,
2013-02-15 01:50:00,28.8,23.4,29.84,West,264,0.0,0.0,80,0.00,,,0.00,Wunderground v.1.15,2013-02-15 06:50:00,
2013-02-15 02:00:00,28.6,23.5,29.84,West,264,0.0,0.0,81,0.00,,,0.00,Wunderground v.1.15,2013-02-15 07:00:00,
2013-02-15 02:10:00,28.5,23.7,29.84,West,264,0.0,2.0,82,0.00,,,0.00,Wunderground v.1.15,2013-02-15 07:10:00,
2013-02-15 02:15:00,28.3,23.5,29.84,West,264,0.0,2.0,82,0.00,,,0.00,Wunderground v.1.15,2013-02-15 07:15:00,
2013-02-15 02:20:00,28.3,23.5,29.84,West,264,0.0,0.0,82,0.00,,,0.00,Wunderground v.1.15,2013-02-15 07:20:00,
2013-02-15 02:25:00,28.3,23.5,29.84,West,264,0.0,0.0,82,0.00,,,0.00,Wunderground v.1.15,2013-02-15 07:25:00,
2013-02-15 02:35:00,28.2,23.7,29.83,West,264,0.0,0.0,83,0.00,,,0.00,Wunderground v.1.15,2013-02-15 07:35:00,
2013-02-15 02:40:00,28.1,23.6,29.83,West,264,0.0,0.0,83,0.00,,,0.00,Wunderground v.1.15,2013-02-15 07:40:00,
2013-02-15 02:50:00,28.1,23.6,29.83,West,264,0.0,0.0,83,0.00,,,0.00,Wunderground v.1.15,2013-02-15 07:50:00,
2013-02-15 02:55:00,28.1,23.6,29.83,West,264,0.0,0.0,83,0.00,,,0.00,Wunderground v.1.15,2013-02-15 07:55:00,
2013-02-15 03:05:00,28.3,24.1,29.83,West,264,0.0,0.0,84,0.00,,,0.00,Wunderground v.1.15,2013-02-15 08:05:00,
2013-02-15 03:15:00,28.3,23.5,29.82,West,264,0.0,0.0,82,0.00,,,0.00,Wunderground v.1.15,2013-02-15 08:15:00,
2013-02-15 03:20:00,28.3,23.8,29.82,West,264,0.0,0.0,83,0.00,,,0.00,Wunderground v.1.15,2013-02-15 08:20:00,
2013-02-15 03:30:00,28.7,24.2,29.82,West,264,0.0,0.0,83,0.00,,,0.00,Wunderground v.1.15,2013-02-15 08:30:00,
2013-02-15 03:35:00,29.2,25.0,29.82,West,264,0.0,0.0,84,0.00,,,0.00,Wunderground v.1.15,2013-02-15 08:35:00,
2013-02-15 03:40:00,29.6,25.4,29.82,West,264,0.0,0.0,84,0.00,,,0.00,Wunderground v.1.15,2013-02-15 08:40:00,
2013-02-15 03:50:00,30.4,25.9,29.81,West,264,0.0,0.0,83,0.00,,,0.00,Wunderground v.1.15,2013-02-15 08:50:00,
2013-02-15 04:00:00,30.8,26.0,29.81,West,264,0.0,0.0,82,0.00,,,0.00,Wunderground v.1.15,2013-02-15 09:00:00,
2013-02-15 04:05:00,30.9,26.1,29.81,West,264,1.0,2.0,82,0.00,,,0.00,Wunderground v.1.15,2013-02-15 09:05:00,
2013-02-15 04:10:00,31.0,26.4,29.81,West,264,1.0,3.0,83,0.00,,,0.00,Wunderground v.1.15,2013-02-15 09:10:00,
2013-02-15 04:15:00,31.5,27.2,29.80,SSW,213,2.0,3.0,84,0.00,,,0.00,Wunderground v.1.15,2013-02-15 09:15:00,
2013-02-15 04:25:00,31.6,27.0,29.81,SSW,213,1.0,2.0,83,0.00,,,0.00,Wunderground v.1.15,2013-02-15 09:25:00,
2013-02-15 04:30:00,31.7,27.1,29.81,SSW,213,1.0,2.0,83,0.00,,,0.00,Wunderground v.1.15,2013-02-15 09:30:00,
2013-02-15 04:40:00,32.0,27.4,29.81,SSW,213,2.0,2.0,83,0.00,,,0.00,Wunderground v.1.15,2013-02-15 09:40:00,
2013-02-15 04:50:00,32.1,27.5,29.81,SSW,213,1.0,1.0,83,0.00,,,0.00,Wunderground v.1.15,2013-02-15 09:50:00,
2013-02-15 04:55:00,32.1,27.5,29.81,SSW,213,1.0,2.0,83,0.00,,,0.00,Wunderground v.1.15,2013-02-15 09:55:00,
2013-02-15 05:05:00,32.2,28.2,29.81,South,179,2.0,4.0,85,0.00,,,0.00,Wunderground v.1.15,2013-02-15 10:05:00,
2013-02-15 05:15:00,32.6,28.6,29.81,SSW,211,2.0,3.0,85,0.00,,,0.00,Wunderground v.1.15,2013-02-15 10:15:00,
2013-02-15 05:20:00,32.8,28.5,29.81,SSW,211,2.0,2.0,84,0.00,,,0.00,Wunderground v.1.15,2013-02-15 10:20:00,
2013-02-15 05:25:00,32.9,29.2,29.81,SSW,197,2.0,2.0,86,0.00,,,0.00,Wunderground v.1.15,2013-02-15 10:25:00,
2013-02-15 05:30:00,32.8,29.4,29.81,SSW,197,2.0,3.0,87,0.00,,,0.00,Wunderground v.1.15,2013-02-15 10:30:00,
2013-02-15 05:40:00,32.6,29.4,29.80,SSW,197,2.0,2.0,88,0.00,,,0.00,Wunderground v.1.15,2013-02-15 10:40:00,
2013-02-15 05:50:00,32.6,29.7,29.80,SSW,197,1.0,1.0,89,0.00,,,0.00,Wunderground v.1.15,2013-02-15 10:50:00,
2013-02-15 05:55:00,32.6,29.7,29.81,SSW,197,2.0,2.0,89,0.00,,,0.00,Wunderground v.1.15,2013-02-15 10:55:00,
2013-02-15 06:05:00,32.6,29.7,29.81,SSW,197,2.0,2.0,89,0.00,,,0.00,Wunderground v.1.15,2013-02-15 11:05:00,
2013-02-15 06:10:00,32.6,29.7,29.81,SSW,197,2.0,2.0,89,0.00,,,0.00,Wunderground v.1.15,2013-02-15 11:10:00,
2013-02-15 06:15:00,32.5,29.6,29.81,SSW,197,1.0,2.0,89,0.00,,,0.00,Wunderground v.1.15,2013-02-15 11:15:00,
2013-02-15 06:20:00,32.5,29.6,29.81,SSW,197,0.0,0.0,89,0.00,,,0.00,Wunderground v.1.15,2013-02-15 11:20:00,
2013-02-15 06:25:00,32.5,29.6,29.81,SSW,197,0.0,0.0,89,0.00,,,0.00,Wunderground v.1.15,2013-02-15 11:25:00,
2013-02-15 06:35:00,32.3,29.1,29.80,SSW,197,0.0,0.0,88,0.00,,,0.00,Wunderground v.1.15,2013-02-15 11:35:00,
2013-02-15 06:40:00,32.1,28.9,29.80,SSW,197,0.0,0.0,88,0.00,,,0.00,Wunderground v.1.15,2013-02-15 11:40:00,
2013-02-15 06:50:00,31.7,28.8,29.80,SSW,197,0.0,0.0,89,0.00,,,0.00,Wunderground v.1.15,2013-02-15 11:50:00,
2013-02-15 06:55:00,31.6,28.7,29.80,SSW,197,0.0,0.0,89,0.00,,,0.00,Wunderground v.1.15,2013-02-15 11:55:00,
2013-02-15 07:05:00,31.2,28.3,29.80,SSW,197,0.0,0.0,89,0.00,,,0.00,Wunderground v.1.15,2013-02-15 12:05:00,
2013-02-15 07:10:00,31.0,28.4,29.81,SSW,197,0.0,0.0,90,0.00,,,0.00,Wunderground v.1.15,2013-02-15 12:10:00,
2013-02-15 07:15:00,30.8,28.2,29.81,SSW,197,0.0,0.0,90,0.00,,,0.00,Wunderground v.1.15,2013-02-15 12:15:00,
2013-02-15 07:25:00,31.2,29.1,29.82,SSW,197,0.0,0.0,92,0.00,,,0.00,Wunderground v.1.15,2013-02-15 12:25:00,
2013-02-15 07:30:00,31.6,29.5,29.82,SSW,197,0.0,0.0,92,0.00,,,0.00,Wunderground v.1.15,2013-02-15 12:30:00,
2013-02-15 07:35:00,31.8,29.5,29.82,SSW,197,0.0,0.0,91,0.00,,,0.00,Wunderground v.1.15,2013-02-15 12:35:00,
2013-02-15 07:45:00,32.1,29.8,29.82,SSW,197,0.0,0.0,91,0.00,,,0.00,Wunderground v.1.15,2013-02-15 12:45:00,
2013-02-15 07:50:00,32.4,30.1,29.82,SSW,197,0.0,1.0,91,0.00,,,0.00,Wunderground v.1.15,2013-02-15 12:50:00,
2013-02-15 07:55:00,32.7,30.4,29.82,SSW,211,1.0,1.0,91,0.00,,,0.00,Wunderground v.1.15,2013-02-15 12:55:00,
2013-02-15 08:00:00,32.9,30.3,29.82,SSW,211,1.0,1.0,90,0.00,,,0.00,Wunderground v.1.15,2013-02-15 13:00:00,
2013-02-15 08:05:00,33.0,30.4,29.82,SSW,207,2.0,2.0,90,0.00,,,0.00,Wunderground v.1.15,2013-02-15 13:05:00,
2013-02-15 08:10:00,33.0,30.4,29.82,SSW,205,2.0,3.0,90,0.00,,,0.00,Wunderground v.1.15,2013-02-15 13:10:00,
2013-02-15 08:20:00,33.0,30.7,29.82,SSW,205,3.0,3.0,91,0.00,,,0.00,Wunderground v.1.15,2013-02-15 13:20:00,
2013-02-15 08:25:00,33.0,30.4,29.82,SSW,205,2.0,3.0,90,0.00,,,0.00,Wunderground v.1.15,2013-02-15 13:25:00,
2013-02-15 08:35:00,33.1,30.8,29.82,South,188,3.0,5.0,91,0.00,,,0.00,Wunderground v.1.15,2013-02-15 13:35:00,
2013-02-15 08:40:00,33.3,31.2,29.82,South,182,3.0,3.0,92,0.00,,,0.00,Wunderground v.1.15,2013-02-15 13:40:00,
2013-02-15 08:50:00,33.8,32.0,29.82,South,188,4.0,4.0,93,0.00,,,0.00,Wunderground v.1.15,2013-02-15 13:50:00,
2013-02-15 08:55:00,34.4,32.6,29.82,South,184,4.0,4.0,93,0.00,,,0.00,Wunderground v.1.15,2013-02-15 13:55:00,
2013-02-15 09:00:00,35.5,33.9,29.82,SSW,204,4.0,6.0,94,0.00,,,0.00,Wunderground v.1.15,2013-02-15 14:00:00,
2013-02-15 09:05:00,36.5,34.1,29.82,SSW,200,4.0,6.0,91,0.00,,,0.00,Wunderground v.1.15,2013-02-15 14:05:00,
2013-02-15 09:15:00,37.0,33.2,29.82,South,186,6.0,8.0,86,0.00,,,0.00,Wunderground v.1.15,2013-02-15 14:15:00,
2013-02-15 09:20:00,37.1,33.3,29.82,South,184,7.0,8.0,86,0.00,,,0.00,Wunderground v.1.15,2013-02-15 14:20:00,
2013-02-15 09:30:00,37.9,33.8,29.82,SSW,196,5.0,5.0,85,0.00,,,0.00,Wunderground v.1.15,2013-02-15 14:30:00,
2013-02-15 09:35:00,38.3,33.9,29.82,South,184,4.0,5.0,84,0.00,,,0.00,Wunderground v.1.15,2013-02-15 14:35:00,
2013-02-15 09:40:00,38.6,33.6,29.83,South,178,4.0,5.0,82,0.00,,,0.00,Wunderground v.1.15,2013-02-15 14:40:00,
2013-02-15 09:50:00,39.7,33.7,29.82,South,191,3.0,3.0,79,0.00,,,0.00,Wunderground v.1.15,2013-02-15 14:50:00,
2013-02-15 09:55:00,40.4,33.8,29.82,South,190,3.0,3.0,77,0.00,,,0.00,Wunderground v.1.15,2013-02-15 14:55:00,
2013-02-15 10:00:00,40.8,34.1,29.82,West,274,2.0,2.0,77,0.00,,,0.00,Wunderground v.1.15,2013-02-15 15:00:00,
2013-02-15 10:10:00,41.2,33.5,29.82,NNE,16,1.0,1.0,74,0.00,,,0.00,Wunderground v.1.15,2013-02-15 15:10:00,
2013-02-15 10:15:00,41.6,32.5,29.82,West,269,1.0,2.0,70,0.00,,,0.00,Wunderground v.1.15,2013-02-15 15:15:00,
2013-02-15 10:25:00,41.8,32.4,29.82,WNW,292,6.0,10.0,69,0.00,,,0.00,Wunderground v.1.15,2013-02-15 15:25:00,
2013-02-15 10:30:00,41.4,31.6,29.82,NW,315,9.0,9.0,68,0.00,,,0.00,Wunderground v.1.15,2013-02-15 15:30:00,
2013-02-15 10:40:00,41.1,31.3,29.82,NW,308,12.0,12.0,68,0.00,,,0.00,Wunderground v.1.15,2013-02-15 15:40:00,
2013-02-15 10:45:00,41.1,31.0,29.82,West,267,11.0,12.0,67,0.00,,,0.00,Wunderground v.1.15,2013-02-15 15:45:00,
2013-02-15 10:50:00,41.3,29.6,29.82,WNW,298,12.0,12.0,63,0.00,,,0.00,Wunderground v.1.15,2013-02-15 15:50:00,
2013-02-15 11:00:00,41.5,29.0,29.83,West,264,16.0,24.0,61,0.00,,,0.00,Wunderground v.1.15,2013-02-15 16:00:00,
2013-02-15 11:05:00,41.5,28.2,29.83,WNW,290,17.0,24.0,59,0.00,,,0.00,Wunderground v.1.15,2013-02-15 16:05:00,
2013-02-15 11:10:00,41.5,27.8,29.83,West,275,18.0,18.0,58,0.00,,,0.00,Wunderground v.1.15,2013-02-15 16:10:00,
2013-02-15 11:15:00,41.6,27.9,29.83,WNW,300,18.0,18.0,58,0.00,,,0.00,Wunderground v.1.15,2013-02-15 16:15:00,
2013-02-15 11:20:00,41.9,27.8,29.83,West,275,17.0,19.0,57,0.00,,,0.00,Wunderground v.1.15,2013-02-15 16:20:00,
2013-02-15 11:25:00,41.8,27.7,29.83,WNW,287,16.0,20.0,57,0.00,,,0.00,Wunderground v.1.15,2013-02-15 16:25:00,
2013-02-15 11:35:00,42.0,27.0,29.83,West,275,17.0,17.0,55,0.00,,,0.00,Wunderground v.1.15,2013-02-15 16:35:00,
2013-02-15 11:45:00,41.8,26.8,29.83,WNW,283,15.0,20.0,55,0.00,,,0.00,Wunderground v.1.15,2013-02-15 16:45:00,
2013-02-15 11:50:00,41.8,26.8,29.83,WSW,258,13.0,13.0,55,0.00,,,0.00,Wunderground v.1.15,2013-02-15 16:50:00,
2013-02-15 12:00:00,42.9,27.8,29.83,WNW,282,11.0,17.0,55,0.00,,,0.00,Wunderground v.1.15,2013-02-15 17:00:00,
2013-02-15 12:10:00,42.4,27.4,29.83,WNW,300,14.0,19.0,55,0.00,,,0.00,Wunderground v.1.15,2013-02-15 17:10:00,
2013-02-15 12:15:00,42.1,27.5,29.83,NW,304,13.0,19.0,56,0.00,,,0.00,Wunderground v.1.15,2013-02-15 17:15:00,
2013-02-15 12:20:00,41.8,27.7,29.83,West,276,15.0,16.0,57,0.00,,,0.00,Wunderground v.1.15,2013-02-15 17:20:00,
2013-02-15 12:25:00,41.8,28.1,29.82,WSW,257,14.0,16.0,58,0.00,,,0.00,Wunderground v.1.15,2013-02-15 17:25:00,
2013-02-15 12:30:00,42.2,27.6,29.82,West,267,12.0,14.0,56,0.00,,,0.00,Wunderground v.1.15,2013-02-15 17:30:00,
2013-02-15 12:35:00,42.4,27.8,29.82,West,277,11.0,14.0,56,0.00,,,0.00,Wunderground v.1.15,2013-02-15 17:35:00,
2013-02-15 12:40:00,42.9,26.9,29.82,West,280,11.0,11.0,53,0.00,,,0.00,Wunderground v.1.15,2013-02-15 17:40:00,
2013-02-15 12:45:00,42.9,26.9,29.82,WNW,282,11.0,14.0,53,0.00,,,0.00,Wunderground v.1.15,2013-02-15 17:45:00,
2013-02-15 12:55:00,42.6,25.7,29.82,WSW,250,17.0,17.0,51,0.00,,,0.00,Wunderground v.1.15,2013-02-15 17:55:00,
2013-02-15 13:05:00,42.3,26.4,29.82,WSW,247,14.0,20.0,53,0.00,,,0.00,Wunderground v.1.15,2013-02-15 18:05:00,
2013-02-15 13:10:00,42.3,25.9,29.83,West,281,14.0,14.0,52,0.00,,,0.00,Wunderground v.1.15,2013-02-15 18:10:00,
2013-02-15 13:15:00,42.2,25.8,29.83,WNW,301,16.0,16.0,52,0.00,,,0.00,Wunderground v.1.15,2013-02-15 18:15:00,
2013-02-15 13:20:00,42.2,26.3,29.83,West,274,15.0,15.0,53,0.00,,,0.00,Wunderground v.1.15,2013-02-15 18:20:00,
2013-02-15 13:30:00,42.0,26.5,29.83,WSW,256,13.0,13.0,54,0.00,,,0.00,Wunderground v.1.15,2013-02-15 18:30:00,
2013-02-15 13:40:00,41.8,26.4,29.83,WNW,294,17.0,26.0,54,0.00,,,0.00,Wunderground v.1.15,2013-02-15 18:40:00,
2013-02-15 13:45:00,42.0,26.5,29.83,West,280,18.0,26.0,54,0.00,,,0.00,Wunderground v.1.15,2013-02-15 18:45:00,
2013-02-15 13:50:00,42.1,27.1,29.84,NW,311,16.0,16.0,55,0.00,,,0.00,Wunderground v.1.15,2013-02-15 18:50:00,
2013-02-15 14:00:00,42.3,26.8,29.84,West,265,15.0,21.0,54,0.00,,,0.00,Wunderground v.1.15,2013-02-15 19:00:00,
2013-02-15 14:10:00,41.7,26.7,29.84,West,277,17.0,18.0,55,0.00,,,0.00,Wunderground v.1.15,2013-02-15 19:10:00,
2013-02-15 14:20:00,41.4,27.3,29.85,West,275,15.0,15.0,57,0.00,,,0.00,Wunderground v.1.15,2013-02-15 19:20:00,
2013-02-15 14:30:00,41.0,26.9,29.85,West,261,14.0,14.0,57,0.00,,,0.00,Wunderground v.1.15,2013-02-15 19:30:00,
2013-02-15 14:35:00,41.0,26.9,29.85,WSW,253,14.0,14.0,57,0.00,,,0.00,Wunderground v.1.15,2013-02-15 19:35:00,
2013-02-15 14:40:00,41.4,26.0,29.84,WNW,288,14.0,17.0,54,0.00,,,0.00,Wunderground v.1.15,2013-02-15 19:40:00,
2013-02-15 14:45:00,41.3,25.9,29.85,West,263,13.0,17.0,54,0.00,,,0.00,Wunderground v.1.15,2013-02-15 19:45:00,
2013-02-15 14:50:00,41.2,25.8,29.85,West,269,11.0,13.0,54,0.00,,,0.00,Wunderground v.1.15,2013-02-15 19:50:00,
2013-02-15 15:00:00,41.1,26.1,29.86,WNW,284,11.0,12.0,55,0.00,,,0.00,Wunderground v.1.15,2013-02-15 20:00:00,
2013-02-15 15:05:00,40.9,26.4,29.86,NW,306,11.0,12.0,56,0.00,,,0.00,Wunderground v.1.15,2013-02-15 20:05:00,
2013-02-15 15:10:00,40.7,26.6,29.85,West,275,11.0,15.0,57,0.00,,,0.00,Wunderground v.1.15,2013-02-15 20:10:00,
2013-02-15 15:15:00,40.6,27.0,29.86,WNW,296,10.0,15.0,58,0.00,,,0.00,Wunderground v.1.15,2013-02-15 20:15:00,
2013-02-15 15:20:00,40.5,26.9,29.86,West,263,11.0,15.0,58,0.00,,,0.00,Wunderground v.1.15,2013-02-15 20:20:00,
2013-02-15 15:25:00,40.5,27.3,29.87,WSW,247,11.0,15.0,59,0.00,,,0.00,Wunderground v.1.15,2013-02-15 20:25:00,
2013-02-15 15:30:00,40.5,28.1,29.87,West,277,12.0,18.0,61,0.00,,,0.00,Wunderground v.1.15,2013-02-15 20:30:00,
2013-02-15 15:40:00,39.7,28.5,29.87,WNW,291,14.0,16.0,64,0.00,,,0.00,Wunderground v.1.15,2013-02-15 20:40:00,
2013-02-15 15:45:00,39.3,28.9,29.88,WNW,284,12.0,16.0,66,0.00,,,0.00,Wunderground v.1.15,2013-02-15 20:45:00,
2013-02-15 15:50:00,38.9,28.9,29.87,WNW,288,12.0,12.0,67,0.00,,,0.00,Wunderground v.1.15,2013-02-15 20:50:00,
2013-02-15 16:00:00,39.0,29.0,29.88,West,277,11.0,11.0,67,0.00,,,0.00,Wunderground v.1.15,2013-02-15 21:00:00,
2013-02-15 16:05:00,39.3,27.7,29.87,West,262,12.0,12.0,63,0.00,,,0.00,Wunderground v.1.15,2013-02-15 21:05:00,
2013-02-15 16:10:00,39.4,27.1,29.87,WSW,246,12.0,16.0,61,0.00,,,0.00,Wunderground v.1.15,2013-02-15 21:10:00,
2013-02-15 16:20:00,38.7,26.4,29.87,WNW,288,13.0,13.0,61,0.00,,,0.00,Wunderground v.1.15,2013-02-15 21:20:00,
2013-02-15 16:30:00,38.7,25.6,29.88,WNW,298,13.0,18.0,59,0.00,,,0.00,Wunderground v.1.15,2013-02-15 21:30:00,
2013-02-15 16:35:00,38.7,25.6,29.88,WNW,298,12.0,18.0,59,0.00,,,0.00,Wunderground v.1.15,2013-02-15 21:35:00,
2013-02-15 16:40:00,38.6,25.5,29.88,WNW,284,10.0,10.0,59,0.00,,,0.00,Wunderground v.1.15,2013-02-15 21:40:00,
2013-02-15 16:50:00,38.5,25.0,29.88,West,281,10.0,10.0,58,0.00,,,0.00,Wunderground v.1.15,2013-02-15 21:50:00,
2013-02-15 16:55:00,38.5,25.0,29.88,WNW,288,10.0,13.0,58,0.00,,,0.00,Wunderground v.1.15,2013-02-15 21:55:00,
2013-02-15 17:05:00,38.5,25.4,29.88,NW,306,13.0,13.0,59,0.00,,,0.00,Wunderground v.1.15,2013-02-15 22:05:00,
2013-02-15 17:15:00,38.2,25.1,29.88,WNW,289,10.0,17.0,59,0.00,,,0.00,Wunderground v.1.15,2013-02-15 22:15:00,
2013-02-15 17:20:00,38.2,24.7,29.89,West,277,13.0,18.0,58,0.00,,,0.00,Wunderground v.1.15,2013-02-15 22:20:00,
2013-02-15 17:30:00,38.0,24.5,29.89,WNW,284,12.0,12.0,58,0.00,,,0.00,Wunderground v.1.15,2013-02-15 22:30:00,
2013-02-15 17:40:00,37.8,23.9,29.90,WNW,295,10.0,10.0,57,0.00,,,0.00,Wunderground v.1.15,2013-02-15 22:40:00,
2013-02-15 17:45:00,37.8,23.9,29.90,WSW,254,11.0,12.0,57,0.00,,,0.00,Wunderground v.1.15,2013-02-15 22:45:00,
2013-02-15 17:50:00,37.7,23.4,29.90,West,279,11.0,11.0,56,0.00,,,0.00,Wunderground v.1.15,2013-02-15 22:50:00,
2013-02-15 17:55:00,37.5,22.8,29.91,West,279,11.0,13.0,55,0.00,,,0.00,Wunderground v.1.15,2013-02-15 22:55:00,
2013-02-15 18:05:00,37.2,22.1,29.91,West,261,11.0,12.0,54,0.00,,,0.00,Wunderground v.1.15,2013-02-15 23:05:00,
2013-02-15 18:10:00,37.1,22.0,29.92,West,281,10.0,10.0,54,0.00,,,0.00,Wunderground v.1.15,2013-02-15 23:10:00,
2013-02-15 18:15:00,37.0,21.9,29.92,WSW,243,10.0,13.0,54,0.00,,,0.00,Wunderground v.1.15,2013-02-15 23:15:00,
2013-02-15 18:20:00,36.9,21.8,29.92,WNW,292,11.0,16.0,54,0.00,,,0.00,Wunderground v.1.15,2013-02-15 23:20:00,
2013-02-15 18:25:00,36.8,21.7,29.92,West,259,11.0,16.0,54,0.00,,,0.00,Wunderground v.1.15,2013-02-15 23:25:00,
2013-02-15 18:35:00,36.5,21.8,29.92,West,262,9.0,11.0,55,0.00,,,0.00,Wunderground v.1.15,2013-02-15 23:35:00,
2013-02-15 18:40:00,36.4,21.8,29.92,WSW,248,9.0,9.0,55,0.00,,,0.00,Wunderground v.1.15,2013-02-15 23:40:00,
2013-02-15 18:50:00,36.1,21.5,29.92,West,271,9.0,9.0,55,0.00,,,0.00,Wunderground v.1.15,2013-02-15 23:50:00,
2013-02-15 19:00:00,36.0,21.8,29.93,West,268,6.0,8.0,56,0.00,,,0.00,Wunderground v.1.15,2013-02-16 00:00:00,
2013-02-15 19:10:00,35.8,21.6,29.93,WSW,257,6.0,6.0,56,0.00,,,0.00,Wunderground v.1.15,2013-02-16 00:10:00,
2013-02-15 19:15:00,35.9,21.7,29.93,WNW,292,6.0,6.0,56,0.00,,,0.00,Wunderground v.1.15,2013-02-16 00:15:00,
2013-02-15 19:20:00,36.0,21.8,29.93,WNW,295,7.0,8.0,56,0.00,,,0.00,Wunderground v.1.15,2013-02-16 00:20:00,
2013-02-15 19:25:00,35.8,21.6,29.93,West,279,6.0,8.0,56,0.00,,,0.00,Wunderground v.1.15,2013-02-16 00:25:00,
2013-02-15 19:30:00,35.6,21.4,29.93,West,265,5.0,5.0,56,0.00,,,0.00,Wunderground v.1.15,2013-02-16 00:30:00,
2013-02-15 19:35:00,35.6,21.4,29.93,WSW,257,5.0,5.0,56,0.00,,,0.00,Wunderground v.1.15,2013-02-16 00:35:00,
2013-02-15 19:45:00,35.7,21.5,29.93,WNW,284,7.0,11.0,56,0.00,,,0.00,Wunderground v.1.15,2013-02-16 00:45:00,
2013-02-15 19:50:00,35.7,21.5,29.93,West,271,9.0,10.0,56,0.00,,,0.00,Wunderground v.1.15,2013-02-16 00:50:00,
2013-02-15 20:00:00,35.7,21.9,29.93,West,269,12.0,14.0,57,0.00,,,0.00,Wunderground v.1.15,2013-02-16 01:00:00,
2013-02-15 20:05:00,35.5,21.8,29.93,West,276,12.0,14.0,57,0.00,,,0.00,Wunderground v.1.15,2013-02-16 01:05:00,
2013-02-15 20:10:00,35.4,21.7,29.93,West,259,10.0,10.0,57,0.00,,,0.00,Wunderground v.1.15,2013-02-16 01:10:00,
2013-02-15 20:15:00,35.4,22.1,29.94,WNW,283,11.0,11.0,58,0.00,,,0.00,Wunderground v.1.15,2013-02-16 01:15:00,
2013-02-15 20:20:00,35.2,21.9,29.94,West,280,10.0,10.0,58,0.00,,,0.00,Wunderground v.1.15,2013-02-16 01:20:00,
2013-02-15 20:25:00,35.2,22.3,29.94,West,281,10.0,15.0,59,0.00,,,0.00,Wunderground v.1.15,2013-02-16 01:25:00,
2013-02-15 20:30:00,35.1,22.2,29.94,WNW,298,12.0,13.0,59,0.00,,,0.00,Wunderground v.1.15,2013-02-16 01:30:00,
2013-02-15 20:35:00,35.0,22.1,29.94,WNW,283,12.0,13.0,59,0.00,,,0.00,Wunderground v.1.15,2013-02-16 01:35:00,
2013-02-15 20:40:00,34.9,22.0,29.95,NNW,339,11.0,11.0,59,0.00,,,0.00,Wunderground v.1.15,2013-02-16 01:40:00,
2013-02-15 20:45:00,34.8,21.9,29.95,WNW,292,10.0,11.0,59,0.00,,,0.00,Wunderground v.1.15,2013-02-16 01:45:00,
2013-02-15 20:55:00,34.6,22.1,29.95,West,277,8.0,13.0,60,0.00,,,0.00,Wunderground v.1.15,2013-02-16 01:55:00,
2013-02-15 21:05:00,34.5,22.0,29.95,WNW,282,8.0,9.0,60,0.00,,,0.00,Wunderground v.1.15,2013-02-16 02:05:00,
2013-02-15 21:10:00,34.5,21.6,29.95,West,273,8.0,11.0,59,0.00,,,0.00,Wunderground v.1.15,2013-02-16 02:10:00,
2013-02-15 21:15:00,34.6,21.7,29.95,West,276,9.0,11.0,59,0.00,,,0.00,Wunderground v.1.15,2013-02-16 02:15:00,
2013-02-15 21:20:00,34.5,21.2,29.95,WNW,284,11.0,11.0,58,0.00,,,0.00,Wunderground v.1.15,2013-02-16 02:20:00,
2013-02-15 21:30:00,34.2,20.9,29.95,NW,313,10.0,10.0,58,0.00,,,0.00,Wunderground v.1.15,2013-02-16 02:30:00,
2013-02-15 21:35:00,34.0,21.2,29.94,NW,311,11.0,11.0,59,0.00,,,0.00,Wunderground v.1.15,2013-02-16 02:35:00,
2013-02-15 21:45:00,33.5,21.1,29.95,WNW,301,11.0,15.0,60,0.00,,,0.00,Wunderground v.1.15,2013-02-16 02:45:00,
2013-02-15 21:55:00,33.0,21.4,29.95,WNW,288,11.0,14.0,62,0.00,,,0.00,Wunderground v.1.15,2013-02-16 02:55:00,
2013-02-15 22:00:00,32.9,20.9,29.94,WNW,300,12.0,18.0,61,0.00,,,0.00,Wunderground v.1.15,2013-02-16 03:00:00,
2013-02-15 22:05:00,32.8,21.2,29.94,WNW,288,14.0,18.0,62,0.00,,,0.00,Wunderground v.1.15,2013-02-16 03:05:00,
2013-02-15 22:10:00,32.6,21.4,29.94,NW,305,13.0,13.0,63,0.00,,,0.00,Wunderground v.1.15,2013-02-16 03:10:00,
2013-02-15 22:20:00,32.2,21.4,29.94,NW,308,11.0,11.0,64,0.00,,,0.00,Wunderground v.1.15,2013-02-16 03:20:00,
2013-02-15 22:25:00,32.1,20.9,29.94,NW,310,11.0,11.0,63,0.00,,,0.00,Wunderground v.1.15,2013-02-16 03:25:00,
2013-02-15 22:35:00,32.0,20.4,29.94,West,281,12.0,18.0,62,0.00,,,0.00,Wunderground v.1.15,2013-02-16 03:35:00,
2013-02-15 22:40:00,32.0,20.4,29.95,WNW,296,12.0,12.0,62,0.00,,,0.00,Wunderground v.1.15,2013-02-16 03:40:00,
2013-02-15 22:45:00,31.9,20.3,29.95,WNW,302,10.0,12.0,62,0.00,,,0.00,Wunderground v.1.15,2013-02-16 03:45:00,
2013-02-15 22:50:00,31.7,19.8,29.95,WNW,298,8.0,8.0,61,0.00,,,0.00,Wunderground v.1.15,2013-02-16 03:50:00,
2013-02-15 22:55:00,31.7,19.8,29.96,WNW,294,7.0,11.0,61,0.00,,,0.00,Wunderground v.1.15,2013-02-16 03:55:00,
2013-02-15 23:00:00,31.6,19.7,29.96,West,271,7.0,7.0,61,0.00,,,0.00,Wunderground v.1.15,2013-02-16 04:00:00,
2013-02-15 23:10:00,31.4,19.1,29.96,WSW,248,6.0,13.0,60,0.00,,,0.00,Wunderground v.1.15,2013-02-16 04:10:00,
2013-02-15 23:15:00,31.4,18.7,29.96,West,271,8.0,13.0,59,0.00,,,0.00,Wunderground v.1.15,2013-02-16 04:15:00,
2013-02-15 23:25:00,31.2,18.1,29.97,WSW,245,7.0,9.0,58,0.00,,,0.00,Wunderground v.1.15,2013-02-16 04:25:00,
2013-02-15 23:30:00,31.2,17.7,29.97,WSW,252,7.0,7.0,57,0.00,,,0.00,Wunderground v.1.15,2013-02-16 04:30:00,
2013-02-15 23:40:00,31.0,17.1,29.97,WNW,296,5.0,8.0,56,0.00,,,0.00,Wunderground v.1.15,2013-02-16 04:40:00,
2013-02-15 23:45:00,31.0,17.1,29.97,WSW,252,6.0,8.0,56,0.00,,,0.00,Wunderground v.1.15,2013-02-16 04:45:00,
2013-02-15 23:55:00,30.9,17.4,29.97,WNW,302,2.0,7.0,57,0.00,,,0.00,Wunderground v.1.15,2013-02-16 04:55:00,